Location: ??
(35.1715°N, 139.6450°E)
Time: 17:17:55
(UTC+00:00)

Meteor 2-5 Rocket - Pass Details

Date: 05 August 2024
Orbit: 833 x 910 km, 81.2° (Epoch: 18 September)

Event Time Altitude Azimuth Distance (km) Brightness Sun altitude
Rises 18:16:32 0° 355° (N) 3,447 7.3 -18.3°
Reaches altitude 10° 18:18:59 10° 359° (N) 2,518 6.6 -17.9°
Maximum altitude 18:24:39 63° 80° (E) 978 4.2 -16.9°
Drops below altitude 10° 18:30:25 10° 161° (SSE) 2,553 6.0 -16.0°
Sets 18:32:54 0° 165° (SSE) 3,499 6.7 -15.6°
